Location: Hope
(40.9110°N, 74.9680°W)
Time: 06:15:47
(UTC-05:00)

OTV 5 (USA 277) - Visible Passes

Search period start: 24 January 2019 00:00
Search period end: 03 February 2019 00:00
Orbit: 339 x 349 km, 54.5° (Epoch: 15 January)

Date Brightness Start Highest point End Pass type
(mag) Time Alt. Az. Time Alt. Az. Time Alt. Az.
25 Jan ? 06:01:35 10° SSW 06:04:07 27° SE 06:06:39 10° ENE visible
26 Jan ? 06:24:45 10° SW 06:27:40 77° NW 06:30:35 10° NE visible
27 Jan ? 05:16:17 25° SE 05:16:33 26° SE 05:19:03 10° ENE visible
28 Jan ? 05:40:01 80° WNW 05:40:05 81° NW 05:43:00 10° NE visible
29 Jan ? 06:03:27 25° NW 06:03:51 26° NNW 06:06:23 10° NNE visible
30 Jan ? 04:55:15 11° NE 04:55:15 11° NE 04:55:27 10° NE visible
30 Jan ? 06:26:42 11° NW 06:27:50 13° NNW 06:29:17 10° N visible
31 Jan ? 05:18:20 13° NNE 05:18:20 13° NNE 05:18:50 10° NNE visible
01 Feb ? 05:41:19 11° N 05:41:19 11° N 05:41:45 10° N visible
